ROMMA est une association bénévole à but non lucratif. Votre soutien est indispensable : ADHERER à ROMMA ou FAIRE un DON

Voiron - (38, Isère)

Voironnais (300 m)   Longitude: 05° 35' E   Latitude: 45° 23' N Station partenaire n°109
 

Détail journalier du     <<     >>

Température Precipitation Humidité Pression Vent Dir Rafale Dir. rafale Ensol.
Heure (°C) (mm) (%) (hPa) (km/h) (km/h) (min)
01:00 27.607510191OSO6SO0
02:00 26.807510181SO6SO0
03:00 25.807910192OSO5OSO0
04:00 24.8078101903OSO0
05:00 24.2080101805ONO0
06:00 23.707910181ONO6NNO0
07:00 23.907810182N6SO0
08:00 26.307110182N8ENE60
09:00 27.206610186S11SSO60
10:00 28.805810187S18SSO60
11:00 30.205710187S18SO60
12:00 31.3052101810S19SSE60
13:00 32.305210178S18S60
14:00 33.805110175S13SSE60
15:00 35.3048101611NNO26N60
16:00 36.0048101514NNO27N60
17:00 36.6054101513N26NNE60
18:00 36.1056101511N27N60
19:00 35.0057101514NNO24N60
20:00 34.3055101513N27NNO60
21:00 32.405710168NNO19NNO60
22:00 31.305310169NO19N0
23:00 30.505410162NE15NNO0
minuit 28.106610162SSE8SSE0

Graphique du 28-06-2019

 

Serveur OMMA